Morrisville, NC

5:29 AM EST on January 22, 2017 (GMT -0500)
Raleigh-Durham International

Weather History for KRDU - March, 2013

Change the Weather History Date:

Sunday, March 31, 2013

  Actual Average Record
Temperature  
Mean Temperature 58 °F 56 °F  
Max Temperature 68 °F 68 °F 88 °F (1910)
Min Temperature 48 °F 44 °F 23 °F (1964)
Degree Days  
Heating Degree Days 7 10  
Month to date heating degree days 615 425  
Since 1 July heating degree days 3061 2996  
Cooling Degree Days 0 1  
Month to date cooling degree days 0 11  
Year to date cooling degree days 2 12  
Growing Degree Days 8 (Base 50)    
Moisture  
Dew Point 50 °F    
Average Humidity 78    
Maximum Humidity 93    
Minimum Humidity 63    
Precipitation  
Precipitation 0.87 in 0.12 in 1.53 in (1962)
Month to date precipitation 2.95 4.11  
Year to date precipitation 10.13 10.84  
Snow  
Snow 0.00 in 0.00 in 3.60 in (1915)
Month to date snowfall 0.0 0.5  
Since 1 July snowfall 1.7 6.0  
Snow Depth 0.00 in    
Sea Level Pressure  
Sea Level Pressure 29.92 in    
Wind  
Wind Speed 8 mph (SSW)    
Max Wind Speed 23 mph    
Max Gust Speed 28 mph    
Visibility 8 miles    
Events Rain    
T = Trace of Precipitation, MM = Missing Value Source: NWS Daily Summary

Daily Weather History Graph

Daily Weather History Graph

Search for Another Location

Airport or City:

Trip Planner

Search our weather history database for the weather conditions in past years. The results will help you decide how hot, cold, wet, or windy it might be!

Date:

Astronomy

Mar. 31, 2013 Rise Set
Actual Time 7:02 AM EDT 7:36 PM EDT
Civil Twilight 6:36 AM EDT 8:02 PM EDT
Nautical Twilight 6:06 AM EDT 8:32 PM EDT
Astronomical Twilight 5:35 AM EDT 9:03 PM EDT
Moon No Moon Rise 9:56 AM EDT (3/31)
Length of Visible Light 13h 25m
Length of Day
12h 33m
Waning Gibbous, 78% of the Moon is Illuminated
Mar 31
Waning Gibbous
Apr 3
Last Quarter
Apr 10
New
Apr 18
First Quarter
Apr 25
Full

Hourly Weather History & Observations

Time (EDT) Temp. Dew Point Humidity Pressure Visibility Wind Dir Wind Speed Gust Speed Precip Events Conditions
12:51 AM 54.0 °F 43.0 °F 66% 30.10 in 10.0 mi South 6.9 mph - N/A   Overcast
1:51 AM 54.0 °F 43.0 °F 66% 30.07 in 10.0 mi SSE 3.5 mph - N/A   Overcast
2:51 AM 52.0 °F 42.1 °F 69% 30.06 in 10.0 mi South 5.8 mph - N/A   Overcast
3:51 AM 51.1 °F 42.1 °F 71% 30.03 in 10.0 mi SE 3.5 mph - N/A   Overcast
4:51 AM 51.1 °F 41.0 °F 68% 30.00 in 10.0 mi SSE 8.1 mph - N/A   Overcast
5:51 AM 52.0 °F 41.0 °F 66% 29.99 in 10.0 mi South 9.2 mph - N/A   Overcast
6:51 AM 48.9 °F 45.0 °F 86% 30.01 in 4.0 mi SSW 5.8 mph - 0.10 in Rain Light Rain
7:51 AM 48.0 °F 46.0 °F 93% 29.97 in 3.0 mi SE 9.2 mph - 0.12 in Rain Light Rain
8:41 AM 50.0 °F 48.2 °F 94% 29.97 in 3.0 mi South 5.8 mph - 0.07 in Rain Light Rain
8:45 AM 50.0 °F 48.2 °F 94% 29.97 in 1.5 mi SSE 5.8 mph - 0.07 in Rain Light Rain
8:51 AM 50.0 °F 48.0 °F 93% 29.97 in 1.5 mi South 5.8 mph - 0.08 in Rain Light Rain
9:42 AM 51.8 °F 50.0 °F 94% 29.95 in 5.0 mi Variable 6.9 mph - 0.05 in   Overcast
9:51 AM 52.0 °F 50.0 °F 93% 29.94 in 6.0 mi South 8.1 mph - 0.05 in   Overcast
10:04 AM 53.6 °F 51.8 °F 94% 29.93 in 6.0 mi South 10.4 mph 16.1 mph N/A   Overcast
10:51 AM 57.0 °F 52.0 °F 83% 29.92 in 8.0 mi SSW 13.8 mph - N/A   Mostly Cloudy
11:51 AM 60.1 °F 54.0 °F 80% 29.91 in 10.0 mi WSW 13.8 mph - N/A   Mostly Cloudy
12:16 PM 60.8 °F 53.6 °F 77% 29.91 in 10.0 mi WSW 12.7 mph - N/A   Overcast
12:51 PM 62.6 °F 53.6 °F 72% 29.89 in 10.0 mi WSW 13.8 mph - N/A   Overcast
1:51 PM 64.0 °F 53.1 °F 67% 29.86 in 10.0 mi WSW 16.1 mph - N/A   Mostly Cloudy
2:51 PM 66.0 °F 53.1 °F 63% 29.84 in 10.0 mi WSW 17.3 mph 25.3 mph N/A   Mostly Cloudy
3:51 PM 66.0 °F 54.0 °F 65% 29.83 in 10.0 mi WSW 13.8 mph 21.9 mph N/A   Overcast
4:51 PM 66.9 °F 53.1 °F 61% 29.83 in 10.0 mi WSW 11.5 mph 19.6 mph N/A   Overcast
5:51 PM 66.0 °F 54.0 °F 65% 29.81 in 10.0 mi SW 9.2 mph - N/A   Overcast
6:51 PM 64.0 °F 54.0 °F 70% 29.82 in 10.0 mi SSW 5.8 mph - N/A   Overcast
7:51 PM 63.0 °F 55.0 °F 75% 29.82 in 10.0 mi SW 9.2 mph - N/A   Overcast
8:37 PM 57.2 °F 53.6 °F 88% 29.85 in 2.0 mi NNW 8.1 mph - 0.22 in Rain Heavy Rain
8:51 PM 55.9 °F 53.1 °F 90% 29.86 in 3.0 mi NW 6.9 mph - 0.37 in Rain Rain
9:51 PM 55.9 °F 54.0 °F 93% 29.85 in 10.0 mi South 3.5 mph - 0.15 in   Overcast
10:51 PM 55.9 °F 54.0 °F 93% 29.85 in 10.0 mi South 3.5 mph - N/A   Overcast
11:51 PM 55.0 °F 53.1 °F 93% 29.85 in 9.0 mi Calm Calm - N/A   Overcast